Time,TemperatureF,DewpointF,PressureIn,WindDirection,WindDirectionDegrees,WindSpeedMPH,WindSpeedGustMPH,Humidity,HourlyPrecipIn,Conditions,Clouds,dailyrainin,SoftwareType,DateUTC
2016-09-25 00:03:00,56.0,50.0,30.30,NNE,19,0.0,0.0,80,-99.99,,,-99.99,,2016-09-25 07:03:00,
2016-09-25 00:13:00,56.0,50.0,30.30,NNE,18,0.0,0.0,80,-99.99,,,-99.99,,2016-09-25 07:13:00,
2016-09-25 00:23:00,55.0,49.0,30.31,NNE,19,0.0,0.0,81,-99.99,,,-99.99,,2016-09-25 07:23:00,
2016-09-25 00:33:00,55.0,49.0,30.31,NNE,18,0.0,0.0,81,-99.99,,,-99.99,,2016-09-25 07:33:00,
2016-09-25 00:45:00,55.0,49.0,30.31,NNE,18,0.0,0.0,81,-99.99,,,-99.99,,2016-09-25 07:45:00,
2016-09-25 00:53:00,55.0,49.0,30.31,NNE,19,0.0,0.0,81,-99.99,,,-99.99,,2016-09-25 07:53:00,
2016-09-25 01:03:00,54.0,48.0,30.31,NNE,19,0.0,0.0,81,-99.99,,,-99.99,,2016-09-25 08:03:00,
2016-09-25 01:12:00,54.0,48.0,30.31,NNE,19,0.0,0.0,81,-99.99,,,-99.99,,2016-09-25 08:12:00,
2016-09-25 01:33:00,54.0,49.0,30.31,NNE,19,0.0,0.0,82,-99.99,,,-99.99,,2016-09-25 08:33:00,
2016-09-25 01:43:00,54.0,49.0,30.32,NNE,18,0.0,0.0,82,-99.99,,,-99.99,,2016-09-25 08:43:00,
2016-09-25 02:03:00,53.0,48.0,30.32,NNE,19,0.0,0.0,83,-99.99,,,-99.99,,2016-09-25 09:03:00,
2016-09-25 02:43:00,53.0,48.0,30.32,NNE,19,0.0,0.0,83,-99.99,,,-99.99,,2016-09-25 09:43:00,
2016-09-25 02:55:00,53.0,48.0,30.32,NNE,18,0.0,-999.0,84,-99.99,,,-99.99,,2016-09-25 09:55:00,
2016-09-25 03:04:00,53.0,48.0,30.32,NNE,18,0.0,0.0,84,-99.99,,,-99.99,,2016-09-25 10:04:00,
2016-09-25 03:13:00,53.0,48.0,30.32,NNE,18,0.0,0.0,83,-99.99,,,-99.99,,2016-09-25 10:13:00,
2016-09-25 03:23:00,52.0,47.0,30.31,NNE,18,0.0,0.0,84,-99.99,,,-99.99,,2016-09-25 10:23:00,
2016-09-25 04:03:00,52.0,48.0,30.30,NNE,19,0.0,0.0,85,-99.99,,,-99.99,,2016-09-25 11:03:00,
2016-09-25 04:13:00,52.0,48.0,30.30,NNE,18,0.0,0.0,85,-99.99,,,-99.99,,2016-09-25 11:13:00,
2016-09-25 04:25:00,52.0,47.0,30.29,NNE,19,0.0,0.0,84,-99.99,,,-99.99,,2016-09-25 11:25:00,
2016-09-25 04:45:00,51.0,47.0,30.29,NNE,19,0.0,0.0,85,-99.99,,,-99.99,,2016-09-25 11:45:00,
2016-09-25 04:54:00,51.0,47.0,30.29,NNE,18,0.0,0.0,85,-99.99,,,-99.99,,2016-09-25 11:54:00,
2016-09-25 05:03:00,51.0,47.0,30.29,NNE,19,0.0,0.0,85,-99.99,,,-99.99,,2016-09-25 12:03:00,
2016-09-25 05:13:00,51.0,47.0,30.29,NNE,19,0.0,0.0,86,-99.99,,,-99.99,,2016-09-25 12:13:00,
2016-09-25 05:24:00,50.0,46.0,30.29,NNE,19,0.0,0.0,86,-99.99,,,-99.99,,2016-09-25 12:24:00,
2016-09-25 05:43:00,50.0,46.0,30.29,NNE,18,0.0,0.0,86,-99.99,,,-99.99,,2016-09-25 12:43:00,
2016-09-25 06:04:00,50.0,46.0,30.29,NNE,18,0.0,0.0,86,-99.99,,,-99.99,,2016-09-25 13:04:00,
2016-09-25 06:12:00,50.0,46.0,30.29,NNE,18,0.0,0.0,86,-99.99,,,-99.99,,2016-09-25 13:12:00,
2016-09-25 06:43:00,50.0,46.0,30.30,NNE,19,0.0,0.0,87,-99.99,,,-99.99,,2016-09-25 13:43:00,
2016-09-25 06:55:00,50.0,46.0,30.30,NNE,19,0.0,0.0,87,-99.99,,,-99.99,,2016-09-25 13:55:00,
2016-09-25 07:03:00,49.0,45.0,30.30,NNE,19,0.0,0.0,87,-99.99,,,-99.99,,2016-09-25 14:03:00,
2016-09-25 07:12:00,49.0,45.0,30.29,NNE,18,0.0,-999.0,87,-99.99,,,-99.99,,2016-09-25 14:12:00,
2016-09-25 07:34:00,49.0,45.0,30.30,NNE,18,0.0,0.0,87,-99.99,,,-99.99,,2016-09-25 14:34:00,
2016-09-25 07:43:00,49.0,45.0,30.30,NNE,19,0.0,0.0,87,-99.99,,,-99.99,,2016-09-25 14:43:00,
2016-09-25 07:54:00,49.0,45.0,30.30,NNE,19,-999.9,-999.0,87,-99.99,,,-99.99,,2016-09-25 14:54:00,
2016-09-25 08:03:00,49.0,45.0,30.30,NNE,19,0.0,0.0,87,-99.99,,,-99.99,,2016-09-25 15:03:00,
2016-09-25 08:12:00,49.0,45.0,30.30,NNE,19,0.0,0.0,87,-99.99,,,-99.99,,2016-09-25 15:12:00,
2016-09-25 08:23:00,49.0,45.0,30.30,NNE,18,0.0,0.0,87,-99.99,,,-99.99,,2016-09-25 15:23:00,
2016-09-25 08:33:00,49.0,45.0,30.31,NNE,19,0.0,0.0,86,-99.99,,,-99.99,,2016-09-25 15:33:00,
2016-09-25 09:05:00,50.0,46.0,30.30,NNE,18,0.0,0.0,86,-99.99,,,-99.99,,2016-09-25 16:05:00,
2016-09-25 09:13:00,50.0,46.0,30.30,NNE,19,0.0,1.0,86,-99.99,,,-99.99,,2016-09-25 16:13:00,
2016-09-25 09:26:00,51.0,47.0,30.30,NNE,19,0.0,0.0,86,-99.99,,,-99.99,,2016-09-25 16:26:00,
2016-09-25 09:34:00,51.0,47.0,30.30,NNE,19,0.0,1.0,86,-99.99,,,-99.99,,2016-09-25 16:34:00,
2016-09-25 10:06:00,53.0,49.0,30.30,NNE,22,0.0,1.0,87,-99.99,,,-99.99,,2016-09-25 17:06:00,
2016-09-25 10:13:00,53.0,49.0,30.30,NNE,22,0.0,1.0,87,-99.99,,,-99.99,,2016-09-25 17:13:00,
2016-09-25 10:34:00,55.0,51.0,30.30,NE,34,0.0,1.0,86,-99.99,,,-99.99,,2016-09-25 17:34:00,
2016-09-25 11:03:00,58.0,53.0,30.29,ESE,109,0.0,1.0,83,-99.99,,,-99.99,,2016-09-25 18:03:00,
2016-09-25 11:13:00,59.0,53.0,30.28,East,96,0.0,1.0,81,-99.99,,,-99.99,,2016-09-25 18:13:00,
2016-09-25 11:23:00,60.0,54.0,30.28,ENE,67,0.0,0.0,80,-99.99,,,-99.99,,2016-09-25 18:23:00,
2016-09-25 11:33:00,61.0,54.0,30.28,ENE,57,0.0,4.0,77,-99.99,,,-99.99,,2016-09-25 18:33:00,
2016-09-25 11:45:00,62.0,54.0,30.27,NW,322,0.0,5.0,76,-99.99,,,-99.99,,2016-09-25 18:45:00,
2016-09-25 11:54:00,64.0,56.0,30.27,ENE,57,0.0,1.0,74,-99.99,,,-99.99,,2016-09-25 18:54:00,
2016-09-25 12:03:00,65.0,56.0,30.27,ENE,58,0.0,3.0,72,-99.99,,,-99.99,,2016-09-25 19:03:00,
2016-09-25 12:13:00,65.0,55.0,30.27,NE,50,0.0,3.0,71,-99.99,,,-99.99,,2016-09-25 19:13:00,
2016-09-25 12:24:00,67.0,56.0,30.27,NE,49,0.0,2.0,67,-99.99,,,-99.99,,2016-09-25 19:24:00,
2016-09-25 12:35:00,68.0,56.0,30.26,NE,46,0.0,4.0,65,-99.99,,,-99.99,,2016-09-25 19:35:00,
2016-09-25 12:43:00,68.0,55.0,30.26,East,92,0.0,4.0,63,-99.99,,,-99.99,,2016-09-25 19:43:00,
2016-09-25 12:55:00,69.0,55.0,30.25,SE,138,0.0,1.0,62,-99.99,,,-99.99,,2016-09-25 19:55:00,
2016-09-25 13:03:00,70.0,55.0,30.25,ENE,57,0.0,2.0,60,-99.99,,,-99.99,,2016-09-25 20:03:00,
2016-09-25 13:12:00,70.0,55.0,30.25,ENE,57,0.0,2.0,59,-99.99,,,-99.99,,2016-09-25 20:12:00,
2016-09-25 13:33:00,72.0,55.0,30.24,ENE,70,0.0,1.0,55,-99.99,,,-99.99,,2016-09-25 20:33:00,
2016-09-25 13:43:00,73.0,55.0,30.23,ENE,59,0.0,3.0,53,-99.99,,,-99.99,,2016-09-25 20:43:00,
2016-09-25 13:53:00,74.0,56.0,30.23,NE,44,1.0,4.0,53,-99.99,,,-99.99,,2016-09-25 20:53:00,
2016-09-25 14:03:00,74.0,55.0,30.23,NE,45,0.0,3.0,52,-99.99,,,-99.99,,2016-09-25 21:03:00,
2016-09-25 14:12:00,74.0,55.0,30.22,NE,44,0.0,2.0,51,-99.99,,,-99.99,,2016-09-25 21:12:00,
2016-09-25 14:23:00,75.0,56.0,30.22,NE,54,0.0,1.0,51,-99.99,,,-99.99,,2016-09-25 21:23:00,